Temp
-17 -17 -16 -14 -14 -13 -12 -12 -12 -11 -10 -10 -10 -9 -9 -9 -8 -8 -8 -8 -9 -9 -9 -9 -9 -9 -8 -8 -8 -8 -8 -8 -6 -7 -8 -8 -7 -8 -7 -7 -7 -7 -7 -7 -7
-18 -17 -17 -15 -14 -14 -13 -12 -12 -11 -10 -10 -10 -10 -9 -9 -9 -8 -8 -8 -8 -9 -9 -9 -9 -9 -9 -8 -8 -8 -8 -7 -7 -7 -7 -7 -7 -7 -7 -7 -7 -7 -7 -7 -7
-18 -18 -17 -16 -15 -14 -13 -13 -13 -12 -11 -11 -10 -10 -9 -9 -9 -9 -9 -8 -9 -9 -9 -9 -9 -9 -9 -8 -8 -8 -8 -8 -7 -7 -7 -7 -7 -7 -6 -7 -7 -7 -7 -7 -7
-17 -17 -17 -16 -15 -14 -14 -13 -13 -12 -11 -11 -11 -10 -10 -9 -9 -9 -9 -9 -9 -9 -9 -9 -8 -8 -9 -8 -8 -8 -8 -7 -8 -7 -7 -7 -7 -7 -6 -6 -7 -7 -7 -7 -7
-18 -17 -17 -16 -15 -14 -14 -14 -13 -13 -12 -11 -11 -11 -10 -9 -9 -9 -9 -9 -9 -9 -9 -9 -8 -8 -8 -8 -8 -7 -8 -7 -7 -7 -7 -7 -7 -7 -7 -7 -7 -7 -7 -7 -7
-18 -18 -17 -16 -15 -15 -14 -14 -14 -13 -12 -12 -11 -11 -10 -10 -10 -9 -9 -9 -9 -9 -9 -9 -8 -9 -8 -9 -8 -8 -7 -7 -7 -7 -7 -7 -7 -7 -7 -7 -7 -7 -7 -7 -7
-18 -18 -17 -16 -15 -15 -14 -14 -14 -14 -12 -12 -11 -11 -10 -10 -10 -9 -9 -9 -9 -9 -9 -9 -9 -9 -9 -8 -8 -8 -7 -7 -7 -7 -7 -7 -7 -7 -7 -7 -7 -7 -7 -7 -7
-17 -17 -16 -16 -16 -15 -15 -14 -15 -14 -12 -12 -11 -11 -11 -10 -10 -10 -10 -9 -9 -9 -9 -9 -9 -9 -9 -9 -8 -8 -8 -7 -7 -7 -7 -7 -7 -7 -7 -7 -7 -7 -7 -7 -7
-16 -16 -16 -16 -15 -15 -15 -15 -14 -13 -12 -12 -11 -11 -10 -10 -10 -10 -10 -10 -9 -9 -9 -9 -9 -9 -9 -9 -9 -9 -8 -8 -7 -7 -7 -7 -7 -7 -7 -7 -7 -7 -7 -7 -7
-16 -16 -15 -15 -15 -15 -15 -15 -14 -13 -12 -12 -11 -11 -11 -11 -10 -10 -10 -10 -10 -10 -10 -10 -9 -9 -9 -9 -9 -8 -8 -8 -8 -6 -7 -7 -7 -7 -8 -8 -8 -8 -7 -7 -7
-16 -16 -16 -16 -15 -15 -15 -14 -13 -12 -12 -10 -10 -11 -10 -10 -10 -10 -10 -10 -10 -10 -9 -9 -9 -9 -9 -9 -9 -9 -9 -9 -9 -7 -8 -7 -7 -7 -8 -8 -8 -8 -7 -7 -7
-16 -16 -15 -15 -15 -15 -14 -13 -12 -12 -12 -12 -11 -11 -11 -11 -11 -10 -10 -11 -10 -10 -10 -10 -10 -9 -9 -9 -9 -9 -9 -9 -8 -8 -8 -8 -8 -8 -8 -8 -8 -8 -7 -7 -7
-15 -15 -15 -15 -14 -14 -13 -13 -13 -12 -12 -12 -11 -11 -11 -11 -11 -11 -11 -10 -10 -10 -10 -10 -9 -10 -9 -9 -9 -9 -9 -9 -9 -8 -9 -8 -8 -8 -8 -8 -8 -8 -8 -8 -8
-15 -15 -14 -14 -13 -13 -13 -13 -13 -12 -12 -12 -11 -11 -11 -11 -11 -11 -11 -11 -10 -10 -10 -10 -9 -10 -9 -9 -9 -9 -9 -9 -9 -9 -9 -9 -8 -9 -9 -8 -8 -8 -8 -9 -9
-14 -14 -13 -13 -13 -13 -13 -13 -13 -12 -12 -12 -12 -11 -11 -11 -11 -11 -11 -11 -10 -10 -10 -10 -10 -10 -10 -9 -10 -9 -9 -9 -9 -9 -9 -9 -9 -8 -8 -9 -9 -9 -9 -9 -9
-14 -13 -13 -12 -12 -13 -12 -12 -12 -12 -12 -12 -12 -11 -11 -11 -11 -11 -11 -11 -11 -10 -10 -10 -10 -10 -10 -10 -9 -9 -10 -10 -10 -9 -9 -9 -9 -9 -8 -9 -9 -9 -9 -9 -9
-14 -14 -13 -13 -13 -12 -12 -12 -12 -12 -12 -12 -12 -12 -11 -11 -11 -11 -11 -11 -11 -10 -10 -10 -10 -10 -10 -10 -10 -10 -10 -10 -10 -10 -10 -9 -9 -10 -9 -10 -9 -10 -10 -10 -10
-14 -13 -13 -13 -13 -12 -12 -12 -13 -12 -12 -12 -12 -12 -12 -11 -11 -11 -11 -10 -10 -10 -10 -10 -9 -10 -10 -10 -10 -10 -10 -10 -10 -11 -11 -10 -10 -10 -10 -10 -10 -10 -10 -10 -10
-13 -13 -12 -12 -12 -12 -12 -13 -12 -12 -12 -12 -12 -12 -11 -11 -11 -11 -11 -10 -11 -11 -11 -10 -10 -10 -11 -11 -10 -10 -10 -11 -10 -11 -11 -11 -11 -10 -10 -10 -11 -11 -10 -10 -10
-12 -12 -12 -12 -12 -12 -12 -12 -12 -12 -12 -12 -12 -12 -11 -11 -11 -11 -11 -11 -11 -11 -11 -11 -11 -11 -11 -11 -11 -11 -11 -11 -11 -11 -11 -11 -12 -12 -12 -12 -12 -12 -11 -10 -11
-12 -12 -12 -12 -12 -12 -12 -11 -12 -12 -12 -12 -12 -11 -11 -11 -11 -11 -11 -11 -11 -11 -11 -11 -11 -11 -11 -11 -11 -11 -11 -12 -12 -12 -11 -11 -11 -12 -12 -13 -12 -12 -11 -11 -12
-12 -12 -12 -12 -12 -12 -12 -12 -12 -12 -12 -12 -12 -12 -12 -11 -11 -11 -11 -11 -11 -11 -11 -11 -11 -11 -11 -12 -11 -11 -12 -12 -12 -12 -12 -12 -11 -12 -13 -13 -13 -12 -12 -13 -14
-13 -13 -13 -13 -12 -12 -12 -12 -12 -12 -12 -12 -12 -12 -12 -12 -12 -12 -12 -12 -12 -12 -12 -12 -12 -12 -12 -12 -12 -12 -12 -13 -13 -12 -12 -13 -12 -13 -14 -13 -12 -12 -13 -13 -14
-12 -12 -12 -12 -12 -12 -12 -12 -12 -12 -12 -12 -12 -12 -12 -12 -12 -12 -12 -12 -12 -12 -12 -12 -12 -12 -12 -12 -12 -12 -12 -12 -13 -12 -13 -13 -13 -14 -14 -14 -14 -15 -15 -15 -15
-13 -13 -12 -12 -12 -12 -12 -12 -12 -12 -12 -12 -12 -12 -12 -12 -12 -12 -12 -12 -12 -12 -12 -12 -12 -12 -13 -13 -12 -12 -13 -13 -13 -13 -13 -13 -14 -14 -14 -14 -15 -16 -16 -15 -16
-13 -13 -13 -13 -13 -13 -13 -13 -13 -13 -13 -13 -12 -12 -12 -13 -13 -13 -12 -12 -12 -13 -13 -13 -13 -13 -13 -13 -13 -13 -14 -14 -14 -14 -14 -14 -14 -15 -15 -15 -15 -16 -16 -16 -17
-14 -14 -14 -14 -14 -13 -13 -13 -13 -13 -13 -13 -13 -13 -13 -13 -13 -13 -13 -13 -13 -13 -13 -13 -13 -13 -13 -13 -13 -13 -13 -14 -14 -14 -14 -14 -15 -15 -16 -16 -16 -17 -17 -17 -17
Height
5703 5707 5717 5729 5739 5752 5764 5775 5785 5795 5806 5816 5824 5831 5838 5844 5850 5855 5861 5867 5870 5874 5877 5880 5883 5885 5887 5889 5890 5892 5894 5890 5893 5894 5897 5897 5898 5897 5898 5898 5896 5895 5894 5892 5892
5694 5699 5706 5719 5731 5745 5757 5768 5778 5790 5801 5812 5821 5828 5834 5841 5847 5853 5859 5863 5867 5871 5875 5878 5881 5883 5885 5886 5888 5889 5888 5889 5891 5892 5893 5894 5895 5895 5896 5896 5894 5893 5891 5890 5888
5686 5691 5698 5709 5724 5738 5751 5762 5774 5785 5797 5808 5818 5826 5831 5838 5844 5851 5855 5860 5864 5868 5872 5875 5878 5880 5882 5883 5885 5886 5885 5887 5888 5889 5890 5891 5893 5892 5892 5892 5892 5890 5888 5887 5885
5679 5685 5693 5704 5719 5734 5746 5759 5771 5781 5793 5805 5815 5823 5829 5835 5843 5847 5853 5858 5862 5866 5869 5872 5875 5878 5880 5880 5882 5881 5883 5885 5886 5886 5887 5888 5889 5889 5888 5889 5887 5886 5885 5884 5883
5677 5682 5690 5701 5717 5732 5744 5757 5770 5780 5791 5803 5813 5821 5828 5834 5841 5846 5851 5855 5860 5863 5867 5869 5872 5875 5876 5879 5879 5877 5882 5882 5883 5884 5885 5885 5885 5885 5884 5883 5883 5882 5881 5881 5879
5676 5683 5691 5702 5717 5732 5745 5758 5770 5779 5791 5802 5812 5820 5826 5833 5838 5844 5849 5853 5857 5861 5864 5867 5870 5872 5874 5875 5876 5877 5878 5880 5880 5881 5882 5882 5882 5882 5880 5880 5879 5879 5878 5877 5876
5683 5688 5696 5707 5721 5734 5747 5759 5770 5780 5791 5802 5811 5818 5825 5832 5836 5841 5847 5851 5855 5859 5862 5864 5866 5869 5871 5873 5873 5873 5875 5876 5877 5878 5878 5878 5879 5879 5876 5876 5875 5875 5874 5874 5873
5692 5696 5705 5715 5727 5739 5750 5761 5771 5781 5792 5802 5811 5818 5825 5829 5835 5841 5845 5849 5852 5856 5859 5862 5864 5866 5867 5870 5871 5871 5872 5872 5874 5873 5875 5874 5874 5877 5872 5872 5871 5870 5871 5869 5868
5702 5708 5715 5724 5733 5744 5754 5764 5774 5783 5793 5803 5811 5817 5823 5829 5835 5839 5843 5847 5850 5853 5856 5859 5861 5863 5865 5866 5868 5868 5867 5867 5868 5870 5871 5870 5869 5871 5867 5867 5867 5866 5867 5865 5864
5715 5719 5725 5733 5741 5750 5759 5768 5777 5785 5794 5804 5811 5819 5823 5829 5833 5837 5841 5844 5848 5851 5854 5856 5858 5860 5862 5863 5865 5863 5864 5865 5862 5866 5865 5865 5865 5865 5863 5863 5862 5861 5861 5860 5859
5725 5730 5735 5742 5749 5757 5764 5771 5782 5790 5799 5806 5812 5819 5823 5827 5831 5835 5839 5842 5845 5848 5851 5853 5856 5857 5858 5860 5860 5861 5860 5860 5860 5859 5860 5859 5860 5858 5860 5858 5857 5856 5855 5854 5853
5737 5742 5746 5752 5758 5764 5770 5780 5785 5793 5801 5807 5813 5819 5823 5826 5831 5834 5838 5842 5844 5846 5848 5851 5852 5855 5854 5856 5856 5856 5856 5857 5855 5855 5855 5853 5855 5853 5854 5852 5851 5850 5849 5848 5846
5748 5751 5755 5760 5765 5770 5777 5785 5790 5796 5803 5809 5814 5818 5823 5827 5830 5833 5837 5839 5842 5844 5845 5848 5849 5851 5851 5852 5852 5852 5851 5852 5850 5849 5849 5848 5849 5848 5848 5847 5845 5844 5843 5842 5840
5757 5760 5763 5767 5772 5776 5782 5787 5794 5800 5806 5812 5816 5820 5823 5826 5830 5832 5835 5838 5839 5841 5843 5844 5847 5847 5847 5847 5847 5847 5848 5846 5845 5844 5843 5844 5843 5842 5843 5841 5840 5838 5837 5835 5833
5764 5767 5770 5774 5778 5781 5787 5791 5797 5802 5808 5813 5816 5819 5822 5827 5828 5831 5833 5835 5837 5838 5840 5840 5842 5842 5841 5843 5842 5842 5841 5841 5839 5839 5838 5838 5836 5837 5837 5836 5834 5832 5830 5828 5826
5768 5771 5775 5778 5781 5786 5790 5794 5800 5806 5808 5812 5815 5818 5821 5824 5826 5828 5830 5832 5833 5835 5836 5834 5838 5837 5837 5837 5836 5836 5836 5835 5834 5833 5833 5833 5831 5830 5830 5829 5827 5825 5823 5821 5818
5772 5775 5779 5782 5787 5789 5793 5797 5802 5804 5809 5812 5814 5817 5819 5822 5824 5826 5827 5829 5829 5831 5830 5832 5832 5832 5831 5832 5832 5831 5830 5830 5830 5829 5826 5824 5824 5824 5822 5820 5819 5817 5815 5812 5809
5778 5781 5784 5787 5790 5793 5796 5800 5802 5804 5808 5810 5813 5815 5817 5819 5821 5823 5824 5824 5826 5826 5826 5826 5828 5829 5827 5827 5827 5827 5826 5825 5823 5823 5820 5819 5818 5817 5816 5813 5811 5807 5805 5802 5798
5782 5785 5788 5790 5792 5795 5798 5799 5801 5805 5807 5810 5811 5813 5815 5816 5819 5819 5820 5821 5822 5821 5823 5822 5821 5824 5823 5823 5823 5823 5821 5820 5818 5818 5815 5816 5812 5809 5806 5804 5802 5797 5794 5791 5787
5784 5786 5788 5791 5793 5795 5798 5799 5802 5804 5806 5808 5809 5812 5811 5815 5815 5815 5816 5817 5817 5817 5817 5819 5817 5819 5819 5818 5817 5816 5816 5815 5812 5810 5809 5809 5806 5800 5798 5793 5789 5785 5782 5779 5775
5785 5787 5788 5790 5792 5794 5796 5798 5800 5801 5803 5805 5806 5808 5808 5810 5810 5811 5813 5813 5813 5813 5813 5813 5813 5816 5814 5813 5811 5811 5810 5809 5807 5805 5801 5800 5800 5794 5790 5784 5778 5774 5770 5767 5764
5784 5786 5788 5789 5791 5792 5794 5796 5797 5798 5800 5801 5802 5803 5804 5805 5806 5806 5808 5807 5808 5808 5808 5808 5808 5807 5809 5807 5805 5805 5804 5802 5799 5799 5795 5792 5791 5788 5779 5772 5765 5759 5757 5754 5746
5783 5785 5786 5787 5789 5790 5791 5793 5794 5795 5796 5798 5799 5800 5800 5801 5802 5802 5802 5803 5803 5803 5803 5802 5802 5801 5801 5800 5800 5799 5797 5795 5791 5787 5789 5782 5784 5775 5765 5758 5753 5752 5749 5745 5741
5783 5784 5785 5786 5787 5788 5789 5790 5791 5792 5793 5794 5795 5796 5796 5797 5797 5798 5798 5797 5797 5797 5797 5796 5797 5795 5795 5791 5792 5791 5789 5786 5783 5779 5777 5772 5769 5764 5757 5748 5743 5738 5731 5725 5717
5782 5783 5784 5785 5785 5786 5787 5788 5789 5790 5790 5791 5792 5792 5792 5793 5793 5793 5793 5792 5793 5791 5791 5790 5790 5789 5787 5785 5783 5781 5780 5777 5770 5769 5763 5764 5755 5754 5748 5745 5741 5732 5725 5720 5714
5780 5781 5782 5783 5783 5784 5784 5785 5786 5786 5787 5788 5788 5788 5788 5789 5788 5788 5787 5787 5787 5785 5784 5782 5781 5780 5779 5776 5774 5771 5769 5765 5762 5758 5753 5749 5746 5736 5736 5733 5728 5722 5713 5707 5699
5776 5777 5778 5779 5779 5780 5781 5781 5782 5782 5783 5783 5783 5783 5783 5783 5782 5781 5781 5779 5778 5778 5776 5774 5771 5769 5769 5766 5764 5763 5759 5756 5751 5746 5742 5738 5735 5729 5725 5719 5714 5708 5702 5696 5687
Wind_Speed
31 35 46 48 48 47 49 51 48 50 53 51 48 44 42 40 39 37 35 33 31 30 27 26 24 22 19 17 16 15 14 19 15 17 14 16 15 18 16 18 21 23 24 24 23
28 30 33 50 48 47 49 51 48 48 51 51 48 44 42 40 39 37 34 34 32 31 29 26 25 23 21 19 18 17 20 20 14 16 15 17 17 17 18 19 22 22 23 24 24
29 30 30 41 50 46 49 50 47 49 50 50 48 44 41 39 38 35 35 33 32 31 29 27 26 24 22 21 21 20 21 19 18 17 17 17 17 18 18 18 19 20 22 23 23
21 29 35 38 49 48 50 49 46 50 49 49 46 43 40 39 37 36 34 32 32 31 29 29 27 25 24 23 23 24 21 19 19 18 18 19 16 19 21 19 20 19 20 21 21
18 29 40 40 48 51 49 47 47 49 48 47 45 41 39 37 33 33 32 31 31 30 30 29 28 26 26 23 24 27 19 20 20 20 20 20 19 20 22 21 20 20 20 20 19
19 30 34 39 46 50 48 45 49 48 46 45 43 40 37 35 33 31 31 30 29 29 28 28 26 26 25 24 25 24 23 21 21 20 20 21 21 20 22 21 21 21 19 19 19
26 29 35 41 46 46 44 46 48 45 44 43 41 38 35 31 31 29 29 28 27 27 27 26 25 25 25 24 24 26 24 22 22 21 21 22 21 19 22 22 22 20 19 20 20
25 30 35 39 41 42 45 49 43 42 42 40 38 35 31 31 28 27 26 27 27 25 25 24 24 25 25 23 23 25 24 24 23 23 20 23 22 16 24 22 21 21 20 22 22
25 29 34 38 41 44 46 43 41 40 39 38 35 32 30 28 27 25 25 24 24 24 23 22 21 22 22 22 23 22 24 26 26 22 22 23 24 17 23 22 22 23 21 24 24
29 32 36 40 43 44 42 40 39 39 37 34 33 30 29 25 26 26 25 24 24 24 20 23 24 21 21 22 20 24 25 23 27 25 23 25 22 22 22 22 23 24 24 24 24
32 34 37 39 40 39 38 38 38 37 34 34 32 26 26 26 25 25 24 24 20 20 21 20 20 21 21 19 20 21 23 24 25 28 25 26 23 25 19 24 25 25 26 26 26
30 32 33 34 34 33 34 35 37 33 31 28 25 23 22 23 22 22 23 23 20 20 19 20 22 17 20 19 21 22 23 24 28 26 26 27 22 24 20 25 26 27 27 27 28
26 28 30 29 27 28 30 28 29 30 26 25 22 22 20 20 18 18 19 19 18 18 19 19 21 17 20 21 23 23 25 24 28 28 25 26 23 24 24 25 26 27 28 29 29
23 24 24 24 25 28 28 28 25 24 22 20 18 17 16 16 15 15 16 17 18 18 17 21 17 20 22 24 25 26 25 26 28 27 27 25 26 25 23 26 26 28 29 30 31
24 23 23 22 22 24 24 23 23 22 18 17 14 15 14 12 16 14 15 17 17 18 20 23 20 22 25 25 25 26 25 25 26 26 27 25 29 26 24 23 27 29 31 32 34
28 26 22 21 22 20 21 21 20 20 15 15 15 13 14 15 15 16 17 18 19 19 21 26 21 23 25 24 25 24 24 24 25 27 28 27 28 28 28 24 28 30 32 34 36
24 22 19 18 17 19 21 21 20 19 16 14 14 14 15 15 16 17 18 18 21 20 24 23 23 24 25 24 23 23 24 26 27 26 29 31 29 25 29 32 33 33 35 38 41
18 16 13 12 12 15 17 18 19 19 14 12 12 12 13 14 14 16 18 20 21 23 25 25 24 20 22 22 23 23 25 26 28 27 29 30 32 34 32 32 33 38 41 43 45
15 12 10 9 9 11 12 14 14 10 14 14 13 14 14 16 16 17 18 19 18 21 22 23 24 19 22 23 24 23 25 26 29 27 31 29 34 36 38 41 40 44 47 48 50
15 13 11 9 9 9 10 10 7 11 14 14 16 15 18 16 18 19 17 18 18 19 21 20 25 21 23 24 25 26 26 26 29 31 32 30 31 39 42 45 48 50 52 53 55
13 13 13 13 13 13 13 8 11 13 14 15 16 16 17 17 19 19 17 19 20 21 22 23 25 22 24 24 26 25 26 27 30 31 35 37 38 40 44 47 50 53 56 58 58
12 12 12 12 12 13 13 11 16 15 15 16 17 17 18 18 18 20 19 21 20 21 22 24 25 25 23 24 27 26 27 30 33 34 38 40 44 44 45 49 54 59 61 60 62
8 9 11 12 12 13 13 14 14 15 16 17 17 18 18 19 20 20 20 22 22 23 23 24 24 25 26 27 28 29 31 33 37 41 40 43 42 45 49 56 61 62 61 60 58
7 7 9 11 12 13 13 14 14 15 16 16 17 18 18 19 20 20 20 21 22 23 23 24 25 28 29 33 33 34 36 38 39 43 42 46 46 47 50 58 61 60 62 63 64
7 8 10 11 11 12 12 13 13 14 14 15 16 16 17 18 19 20 21 23 23 26 27 29 30 32 33 35 37 39 39 40 44 44 48 46 51 51 54 52 50 51 51 53 54
12 12 12 12 13 13 14 15 15 16 17 18 18 19 20 21 23 23 25 26 26 29 30 32 34 35 35 38 39 41 40 43 43 45 49 50 49 51 50 48 49 49 52 53 54
16 16 16 17 17 18 17 18 18 19 19 20 21 21 22 23 25 26 27 29 30 31 33 34 37 40 39 40 42 42 43 43 44 46 47 47 46 47 48 48 49 50 52 54 57
Wind_Direction
251 242 228 217 211 213 207 209 208 205 205 204 204 203 203 203 204 206 207 209 212 215 218 219 221 226 230 232 236 238 241 244 244 252 242 249 251 262 260 267 274 278 282 286 285
242 233 222 213 203 205 201 203 203 199 202 202 203 202 201 202 204 205 206 209 211 215 218 221 224 227 231 236 241 243 243 253 261 256 250 253 259 257 263 265 271 275 278 281 283
233 219 206 206 199 197 197 198 197 192 196 199 201 202 199 201 203 203 205 209 211 215 219 222 225 228 230 236 242 244 246 251 256 257 260 258 265 270 271 269 267 270 274 277 280
220 204 191 186 193 191 192 193 192 185 191 196 199 200 198 199 202 204 206 208 212 216 220 224 227 231 233 235 243 245 250 248 254 260 264 269 270 275 281 280 280 277 274 274 279
205 189 182 176 185 186 185 187 188 182 186 193 197 199 197 199 200 205 207 210 213 218 221 226 229 233 236 239 243 249 243 253 256 264 267 271 275 278 283 284 283 282 279 278 277
175 177 171 167 179 179 180 181 183 178 183 190 195 197 196 197 200 204 207 211 215 219 224 229 234 238 242 244 247 249 250 251 259 263 267 273 278 280 278 281 280 279 276 274 274
156 163 159 163 171 172 173 176 177 175 180 187 193 195 196 197 201 203 208 211 215 220 226 229 236 241 244 248 251 255 255 260 257 264 272 276 278 282 274 277 276 273 273 273 277
137 141 151 159 161 164 167 172 171 172 177 185 191 193 194 198 201 204 208 213 215 218 226 232 237 243 247 250 254 260 264 259 259 268 269 275 277 270 275 276 273 271 272 276 279
121 135 144 149 154 159 163 166 168 168 174 184 188 190 194 196 198 202 206 213 218 221 229 233 233 245 251 254 257 261 263 267 265 265 274 275 281 282 272 272 270 272 273 278 283
124 133 141 148 152 156 160 162 165 167 172 179 186 189 194 198 202 205 208 213 222 221 227 234 240 250 252 254 257 261 268 267 279 270 283 280 278 281 273 272 271 275 278 281 282
126 134 141 145 150 155 158 161 162 164 173 180 186 188 195 200 206 209 211 213 220 223 233 239 242 245 251 255 256 260 270 276 279 285 284 281 283 279 266 273 275 278 281 283 283
125 132 138 143 148 153 155 160 158 162 170 177 184 189 197 203 208 212 215 217 226 229 231 233 237 245 247 252 260 265 270 274 277 285 282 280 280 276 277 278 280 281 283 284 287
124 131 136 140 146 151 153 154 159 164 170 178 183 191 198 205 209 215 220 223 226 228 232 235 243 242 254 259 263 269 271 278 278 281 279 281 280 282 282 280 281 281 284 287 289
119 129 135 139 143 146 150 151 160 166 172 180 185 192 200 204 210 215 219 223 227 231 237 242 246 253 257 263 267 272 280 275 279 280 282 280 278 283 284 284 282 285 287 288 289
119 125 133 132 139 143 148 153 162 169 170 181 184 196 203 203 214 217 222 230 236 243 248 255 258 262 264 272 274 276 276 276 277 279 279 286 286 283 282 281 283 284 285 287 288
131 125 123 128 136 145 150 158 167 173 177 179 192 196 207 212 220 226 233 240 246 252 257 263 262 267 270 271 274 273 272 273 274 277 279 278 279 280 280 285 282 285 287 289 291
132 127 127 131 144 155 161 165 170 185 182 188 200 210 220 227 232 241 246 252 257 259 260 264 266 267 271 269 268 272 272 275 275 279 281 282 284 288 292 292 291 291 291 293 293
126 130 125 139 149 162 169 174 185 191 190 197 208 219 229 238 243 246 249 252 261 262 269 270 264 269 265 269 268 269 275 277 281 283 290 288 293 294 293 291 296 297 295 295 296
140 148 155 160 166 171 177 186 201 190 205 217 225 231 237 246 249 255 264 264 262 265 267 270 270 268 263 268 273 274 278 276 278 279 280 286 289 290 293 300 301 298 297 297 298
160 167 168 175 182 190 201 217 215 216 225 234 241 245 254 249 262 260 267 270 267 266 267 270 270 271 272 274 275 277 277 280 281 284 286 290 292 296 300 303 302 301 298 298 299
187 193 195 196 202 209 218 222 222 233 238 245 251 252 258 260 263 259 271 268 267 267 269 271 272 276 273 277 275 279 279 280 282 286 289 292 294 299 300 298 295 292 293 297 301
193 196 204 211 218 222 229 232 230 237 238 241 246 249 253 256 255 258 263 263 262 264 266 270 272 276 273 272 276 279 281 282 283 285 289 292 292 299 298 294 293 295 301 308 308
207 214 218 221 227 232 234 239 244 247 249 250 253 255 257 257 258 261 263 265 267 268 269 270 272 274 274 275 276 279 281 284 287 288 293 291 296 296 292 291 294 300 303 303 305
225 230 236 239 243 245 247 247 246 247 248 250 252 255 257 260 261 263 264 267 268 270 272 273 276 277 281 283 282 284 285 287 287 291 293 294 294 290 293 297 304 307 308 309 309
227 235 240 244 245 245 247 248 250 253 253 255 257 259 261 264 267 269 269 272 273 276 278 279 280 282 284 285 288 290 291 292 293 294 290 292 291 294 295 300 299 299 302 302 304
245 247 248 249 250 252 253 254 255 256 258 260 261 264 267 269 271 273 275 276 278 281 284 285 285 285 285 286 287 289 291 291 292 292 292 295 297 296 299 301 305 308 306 310 309
253 254 254 254 255 256 259 260 261 263 264 265 267 268 270 272 274 276 278 279 281 282 284 287 287 287 289 288 288 288 289 291 291 292 295 296 300 302 308 311 312 311 311 311 310